TimeEET,TemperatureF,Dew PointF,Humidity,Sea Level PressureIn,VisibilityMPH,Wind Direction,Wind SpeedMPH,Gust SpeedMPH,PrecipitationIn,Events,Conditions,WindDirDegrees,DateUTC
4:50 AM,50.0,46.4,87,30.01,6.2,Calm,Calm,-,N/A,,Scattered Clouds,0,2013-02-05 02:50:00
5:20 AM,50.0,46.4,87,30.01,6.2,Calm,Calm,-,N/A,,Scattered Clouds,0,2013-02-05 03:20:00
5:50 AM,50.0,46.4,87,30.01,6.2,Calm,Calm,-,N/A,,Scattered Clouds,0,2013-02-05 03:50:00
6:20 AM,50.0,46.4,87,30.01,6.2,Calm,Calm,-,N/A,,Scattered Clouds,0,2013-02-05 04:20:00
6:50 AM,50.0,46.4,87,30.01,6.2,Variable,3.5,-,N/A,,Scattered Clouds,0,2013-02-05 04:50:00
7:20 AM,50.0,46.4,87,30.01,6.2,Calm,Calm,-,N/A,,Scattered Clouds,0,2013-02-05 05:20:00
7:50 AM,51.8,46.4,82,30.01,-9999.0,Variable,3.5,-,N/A,,Clear,0,2013-02-05 05:50:00
8:00 AM,51,46,78,30.03,6,,3.5,,,,Scattered Clouds,,2013-02-05 06:00:00
8:20 AM,51.8,46.4,82,30.01,-9999.0,Calm,Calm,-,N/A,,Clear,0,2013-02-05 06:20:00
8:50 AM,53.6,46.4,77,30.01,-9999.0,Calm,Calm,-,N/A,,Clear,0,2013-02-05 06:50:00
9:20 AM,57.2,44.6,63,30.01,-9999.0,Calm,Calm,-,N/A,,Clear,0,2013-02-05 07:20:00
9:50 AM,60.8,48.2,63,30.01,-9999.0,Calm,Calm,-,N/A,,Clear,0,2013-02-05 07:50:00
10:20 AM,62.6,48.2,59,30.01,-9999.0,Variable,3.5,-,N/A,,Clear,0,2013-02-05 08:20:00
10:50 AM,62.6,48.2,59,30.01,6.2,ESE,6.9,-,N/A,,Partly Cloudy,120,2013-02-05 08:50:00
11:20 AM,62.6,48.2,59,29.98,6.2,East,6.9,-,N/A,,Partly Cloudy,80,2013-02-05 09:20:00
11:50 AM,62.6,48.2,59,29.98,6.2,Variable,4.6,-,N/A,,Partly Cloudy,0,2013-02-05 09:50:00
12:20 PM,62.6,48.2,59,29.95,6.2,East,9.2,-,N/A,,Scattered Clouds,100,2013-02-05 10:20:00
12:50 PM,62.6,48.2,59,29.95,6.2,ESE,6.9,-,N/A,,Scattered Clouds,110,2013-02-05 10:50:00
1:20 PM,64.4,48.2,56,29.95,6.2,ESE,6.9,-,N/A,,Scattered Clouds,110,2013-02-05 11:20:00
1:50 PM,66.2,50.0,56,29.92,6.2,North,6.9,-,N/A,,Scattered Clouds,10,2013-02-05 11:50:00
2:00 PM,65,49,46,29.93,6,North,6.9,,,,Scattered Clouds,10,2013-02-05 12:00:00
2:20 PM,66.2,50.0,56,29.92,6.2,North,6.9,-,N/A,,Scattered Clouds,10,2013-02-05 12:20:00
2:50 PM,66.2,50.0,56,29.92,6.2,North,6.9,-,N/A,,Scattered Clouds,10,2013-02-05 12:50:00
3:20 PM,64.4,46.4,52,29.89,6.2,NNE,5.8,-,N/A,,Mostly Cloudy,20,2013-02-05 13:20:00
3:50 PM,64.4,48.2,56,29.89,6.2,NNE,5.8,-,N/A,,Mostly Cloudy,30,2013-02-05 13:50:00
4:20 PM,64.4,48.2,56,29.89,6.2,NNE,5.8,-,N/A,,Mostly Cloudy,30,2013-02-05 14:20:00
4:50 PM,62.6,46.4,55,29.89,6.2,NNE,9.2,-,N/A,,Mostly Cloudy,20,2013-02-05 14:50:00
5:20 PM,60.8,46.4,59,29.89,6.2,NNE,9.2,-,N/A,,Mostly Cloudy,20,2013-02-05 15:20:00
5:50 PM,62.6,44.6,52,29.89,6.2,Calm,Calm,-,N/A,,Mostly Cloudy,0,2013-02-05 15:50:00
6:20 PM,60.8,44.6,55,29.89,6.2,Calm,Calm,-,N/A,,Mostly Cloudy,0,2013-02-05 16:20:00
6:50 PM,59.0,48.2,67,29.89,6.2,Calm,Calm,-,N/A,,Mostly Cloudy,0,2013-02-05 16:50:00
7:20 PM,57.2,48.2,72,29.89,6.2,Calm,Calm,-,N/A,,Mostly Cloudy,0,2013-02-05 17:20:00
7:50 PM,57.2,48.2,72,29.89,6.2,Calm,Calm,-,N/A,,Mostly Cloudy,0,2013-02-05 17:50:00
8:00 PM,58,47,58,29.89,6,Calm,Calm,,,,Scattered Clouds,,2013-02-05 18:00:00